Location: *
(13.2257°S, 48.7193°W)
Time: 00:08:49
(UTC+00:00)

Meteor 1-28 Rocket - Pass Details

Date: 17 May 2026
Orbit: 419 x 427 km, 97.6° (Epoch: 10 June)

Event Time Altitude Azimuth Distance (km) Brightness Sun altitude
Rises 08:50:40 0° 184° (S) 2,393 6.4 -9.1°
Reaches altitude 10° 08:52:50 10° 195° (SSW) 1,519 5.3 -8.6°
Maximum altitude 08:55:43 29° 257° (WSW) 798 3.6 -8.0°
Drops below altitude 10° 08:58:34 10° 320° (NW) 1,500 5.3 -7.3°
Sets 09:00:41 0° 331° (NNW) 2,356 6.4 -6.8°
